Regional Weather Roundup
Issued by NWS

Home | Current Version | Previous Version | Text Only | Print | Product List | Glossary On
Versions: 1 2 3 4 5 6 7 8 9 10 11 12 13 14 15 16 17 18 19 20 21 22 23 24 25 26 27 28 29 30 31 32 33 34 35 36 37 38 39 40 41 42 43 44 45 46 47 48 49 50
000
ASUS43 KDTX 230910
RWRMI
MICHIGAN HOURLY REGIONAL WEATHER ROUNDUP
NATIONAL WEATHER SERVICE DETROIT/PONTIAC MI
500 AM EDT THU OCT 23 2014

NOTE: "FAIR" INDICATES FEW OR NO CLOUDS BELOW 12,000 FEET WITH NO
SIGNIFICANT WEATHER AND/OR OBSTRUCTION TO VISIBILITY.

MIZ047>049-052>055-059>063-066>070-074>076-081>083-231000-
SOUTHEAST LOWER MICHIGAN

CITY           SKY/WX    TMP DP  RH WIND       PRES   REMARKS
ADRIAN         CLEAR     33  32  96 CALM      30.27S
ALMA           FOG       29  29  99 CALM      30.26F VSB 1/2
ANN ARBOR      CLEAR     30  26  85 CALM      30.26S
BAD AXE        MOCLDY    26  26 100 CALM      30.27S
CARO           PTCLDY    29  27  92 CALM      30.26F
DETROIT CITY   CLEAR     40  36  86 NW3       30.26S
DETROIT        CLEAR     37  35  92 NW3       30.26S
FLINT          FOG       31  27  85 W3        30.27F VSB 3/4
GROSSE ILE     CLEAR     39  36  87 NW5       30.24S
HILLSDALE      FOG       29  29 100 CALM      30.25F VSB 3/4
HOWELL         FOG       30  30 100 CALM      30.26S VSB 1/4

CITY           SKY/WX    TMP DP  RH WIND       PRES   REMARKS
JACKSON        FOG       30  28  92 CALM      30.26S VSB 1/2
LAMBERTVILLE   CLEAR     34  32  93 CALM      30.26F FOG
LANSING        CLEAR     30  28  92 CALM      30.26F
LAPEER         FAIR      29  29  99 CALM      30.27S
MASON          FOG       28  28  99 CALM      30.26S VSB 1/4
MONROE         CLEAR     36  36 100 CALM      30.24S FOG
MT. CLEMENS    CLEAR     37  37  99 NW6       30.22F WCI  32
PONTIAC        CLEAR     36  33  89 W3        30.24F
PORT HOPE        N/A     34  32  92 W5        30.24F WCI  30
PORT HURON     CLEAR     36  36 100 NW7       30.24S WCI  30
TRI CITIES     FOG       33  31  92 W3        30.27F VSB 1/2
TROY           CLEAR     40  36  86 NW3       30.27S
SAGINAW HB     CLEAR     32  32 100 CALM      30.26F
$$
MIZ043>046-050>051-056>058-064>065-071>073-077>080-231000-
SOUTHWEST LOWER MICHIGAN

CITY           SKY/WX    TMP DP  RH WIND       PRES   REMARKS
BATTLE CREEK   FOG       32  29  88 CALM      30.26S VSB 1/4
BENTON HARBOR  CLEAR     32  32 100 SE5       30.25F FOG     WCI  27
BIG RAPIDS     FOG       28  28 100 CALM      30.25S VSB 1/4
COLDWATER      FOG       31  31  99 CALM      30.26S VSB 1/2
FREMONT        FOG       31  31 100 CALM      30.25S VSB 1/4
HOLLAND        FOG       33  31  92 CALM      30.26S VSB 1/2
GRAND RAPIDS   MOCLDY    31  29  92 SE3       30.25F FOG
IONIA          FAIR      35  34  99 CALM      30.25S FOG
KALAMAZOO      FOG       31  29  92 CALM      30.26F VSB 1/4
LUDINGTON      CLEAR     34  33  96 SE5       30.24S FOG     WCI  30
MARSHALL       FOG       28  28  99 CALM      30.25F VSB 1/4
MOUNT PLEASANT FOG       28  28  98 CALM      30.25F VSB 1/4
MUSKEGON       PTCLDY    32  29  88 SE3       30.26F FOG
SOUTH HAVEN    CLEAR     32  32  99 CALM      30.25F FOG
$$
MIZ016>042-231000-
NORTHERN LOWER MICHIGAN

CITY           SKY/WX    TMP DP  RH WIND       PRES   REMARKS
ALPENA         MOCLDY    25  23  92 CALM      30.26F
BEAVER ISLAND  CLEAR     28  28  99 CALM      30.22S
BELLAIRE       CLEAR     28  27  96 CALM      30.25F
CADILLAC       FOG       24  23  98 CALM      30.23S VSB<1/4
CHARLEVOIX     CLEAR     34  34 100 SE5       30.26F WCI  30
FRANKFORT      CLEAR     31  29  89 CALM      30.23F FOG
GAYLORD        FOG       29  28  96 CALM      30.22F VSB 1/4
GRAYLING       FOG       27  26  96 CALM      30.24F VSB 1/4
HARBOR SPRINGS CLEAR     30  28  93 CALM      30.24S
HOUGHTON LAKE  FOG       24  23  96 E3        30.24F VSB 1/4
MANISTEE       CLEAR     28  25  86 E5        30.24F WCI  23
OSCODA         CLEAR     27  25  93 CALM      30.26S
PELLSTON       CLEAR     23  21  92 CALM      30.24F
ROGERS CITY    CLEAR     32  32 100 SW3       30.26F
TRAVERSE CITY  CLEAR     31  28  89 CALM      30.23F
$$
MIZ007>008-015-231000-
EASTERN UPPER MICHIGAN

CITY           SKY/WX    TMP DP  RH WIND       PRES   REMARKS
KINROSS        CLEAR     32  32 100 SE7       30.23F WCI  26
MACKINAC ISLAN CLEAR     40  37  89 S8        30.23F WCI  34
NEWBERRY       CLEAR     31  31  99 S5        30.20F WCI  26
S. S. MARIE    CLEAR     32  30  92 E5        30.22F WCI  27
MUNISING         N/A     39  35  86 S7        30.17F WCI  34
$$
MIZ004>006-011>014-085-231000-
CENTRAL UPPER MICHIGAN

CITY           SKY/WX    TMP DP  RH WIND       PRES   REMARKS
MANISTIQUE     CLEAR     44  38  81 S8        30.19F
ESCANABA       MOCLDY    30  27  86 CALM      30.19S
MENOMINEE      CLEAR     39  37  93 S3        30.18F
SAWYER-GWINN   CLOUDY    38  37  97 S13       30.16S FOG     WCI  30
$$
MIZ001>003-009>011-084-231000-
WESTERN UPPER MICHIGAN

CITY           SKY/WX    TMP DP  RH WIND       PRES   REMARKS
IRON MOUNTAIN  CLOUDY    39  37  92 SE7       30.16S FOG     WCI  34
HOUGHTON       CLOUDY    43  35  73 S10       30.08F
COPPER HARBOR    N/A     44  39  82 SW8       30.09F
IRONWOOD       MOCLDY    50  37  62 S10G18    30.01F
$$

ABBREVIATIONS USED IN REMARKS
   TC - TEMPERATURE IN CELSIUS
  WCI - WIND CHILL INDEX
   HX - HEAT INDEX
  VSB - VISIBILITY




USA.gov is the U.S. government's official web portal to all federal, state and local government web resources and services.